Weather in Kachikattsy

Russia / Sakha (Yakutia) Republic     61°19′17″N   128°56′57″E
temp.,
°C
wind,
m/s
gust,
m/s
humid.,
%
clouds,
%
prec.,
mm/h
press.,
hPa
HPBL,
m
29 june, wed
wed2900:00+14w009224 0.0 100010
03:00+12s119517 0.0 100110
06:00+15nw11808 0.0 1003234
09:00+21nnw015585 0.0 1004714
12:00+23n334744 0.0 10041186
15:00+18e2366100 0.1 1004172
18:00+24se115461 0.0 1003569
21:00+20ese257788 0.0 100399
30 june, thu
thu3000:00+18s2382100 0.0 100364
03:00+17ssw1196100 0.5 100311
06:00+19w379159 0.0 1004426
09:00+18w3794100 0.1 1005455
12:00+20wnw4687100 0.4 1006596
15:00+22nw356696 1.2 10061144
18:00+19nw128569 0.9 100753
21:00+18wsw118594 1.5 100711
1 july, fri
fri100:00+14ssw11925 0.0 100711
03:00+13wsw119225 0.0 100811
06:00+16sw1185100 0.0 100873
09:00+21wsw1255100 0.0 1008497
12:00+26nw23379 0.0 10072298
15:00+28nnw333013 0.0 10052755
18:00+26n33331 0.0 10052298
21:00+19e116117 0.0 100611
2 july, sat
sat200:00+15s11700 0.0 100711
03:00+14s11760 0.0 100711
06:00+18wsw11670 0.0 1007127
09:00+25ne114619 0.0 1006699
12:00+28e2334100 0.0 10052206
15:00+29se2331100 0.0 10032551
18:00+27se3541100 0.0 1002819
21:00+21se2665100 0.0 1002119
3 july, sun
sun300:00+19ese2767100 0.0 1002136
03:00+16ene2693100 1.1 1001144
06:00+15ene3898100 6.6 1000349
09:00+16ene269899 7.6 999338
12:00+17nne3493100 0.1 1000419
15:00+17n2593100 0.1 1001397
18:00+17nnw2489100 0.1 1001421
21:00+17wnw128977 0.1 100191